#timestamp,LO_Frequency,Hit,StdDev 
1580133615.9,286047002.4,N
1580133635.7,286047001.7,N
1580133655.5,286047002.5,N
1580133675.4,286047002.6,N
1580133695.2,286047001.0,N
1580133715.1,286047002.0,N
1580133716.0,286047002.0,N
1580133735.8,286047002.3,N
1580133755.6,286047001.1,N
1580133775.5,286047000.0,N
1580133795.3,286047002.4,N
1580133815.1,286047002.5,N
1580133835.9,286047002.5,N
1580133855.7,286046998.5,N
1580133875.6,286046998.1,N
1580133895.4,286047000.1,N
1580133915.2,286047001.2,N
1580133935.1,286046998.6,N
1580133936.0,286046998.6,N
1580133955.8,286047000.0,N
1580133975.7,286047000.8,N
1580133995.5,286046999.5,N
1580134015.3,286047000.6,N
1580134065.2,286047000.0,E
1580134075.1,286046998.2,N
1580134095.9,286046998.5,P
1580134115.7,286046996.6,P
1580134135.5,286046998.4,N
1580134155.4,286046998.4,N
1580134175.2,286046999.3,N
1580134195.0,286046999.3,N
1580134196.0,286046999.3,N
1580134215.8,286046997.2,Y
1580134235.6,286046996.9,P
1580134255.5,286046999.6,N
1580134275.3,286046997.6,N
1580134295.1,286046999.1,N
1580134315.9,286046997.3,N
1580134335.7,286046997.1,Y
1580134355.6,286047001.1,P
1580134375.4,286047000.5,N
1580134395.2,286047000.8,N
1580134415.1,286046998.6,N
1580134416.0,286046998.6,N
1580134435.8,286047001.9,N
1580134455.7,286047004.2,Y
1580134475.5,286047005.8,P
1580134495.3,286047002.2,N
1580134515.2,286047002.2,N
1580134535.0,286047002.7,N
1580134535.9,286047002.7,N
1580134555.8,286047000.5,N
1580134575.6,286046998.1,N
1580134595.4,286046999.0,N
1580134615.3,286047001.1,N
1580134635.1,286046999.0,N
1580134655.8,286046998.8,N
1580134675.7,286047001.1,N
1580134695.5,286046998.3,N
1580134715.4,286046998.8,N
1580134735.2,286046998.7,N
1580134755.0,286046999.4,N
1580134755.9,286046999.4,N
1580134775.8,286046998.6,N
1580134795.6,286046998.7,N
1580134815.4,286046998.7,N
1580134835.3,286046998.9,N
1580134855.1,286046996.6,N
1580134875.9,286046997.0,N
1580134895.7,286047000.7,N
1580134915.5,286046999.9,N
1580134935.4,286047001.9,N
1580134955.2,286047002.9,N
1580134975.0,286047003.8,N
1580134975.9,286047003.8,N
1580134995.8,286047001.4,N
1580135015.6,286047002.8,N
1580135035.5,286047004.3,N
1580135055.3,286047002.6,N
1580135075.1,286046999.7,N
1580135095.9,286046999.8,N
1580135115.7,286047002.3,N
1580135135.5,286047000.5,N
1580135155.4,286047001.0,N
1580135175.2,286047001.0,N
1580135195.1,286047001.4,N
1580135196.0,286047001.4,N
1580135215.8,286047000.3,N
1580135235.6,286047002.2,N
1580135255.5,286047002.5,N
1580135275.3,286047000.9,N
1580135295.1,286046999.9,N
1580135315.9,286046999.7,N
1580135335.7,286046999.7,N
1580135355.6,286047000.9,N
1580135375.4,286047001.1,N
1580135395.2,286046998.4,N
1580135415.1,286046998.6,N
1580135416.0,286046998.6,N
1580135435.8,286047001.2,N
1580135455.6,286046998.9,N
1580135475.5,286046996.9,N
1580135495.3,286046997.1,N
1580135515.2,286046997.4,N
1580135535.9,286046995.3,N
1580135555.7,286046997.5,N
1580135575.6,286046995.4,N
1580135595.4,286046995.6,N
1580135615.2,286046995.7,N
1580135635.1,286046996.4,N
1580135636.0,286046996.4,N
1580135655.8,286046996.3,N
1580135675.7,286046995.7,N
1580135695.5,286046995.9,N
1580135715.3,286046994.7,N
1580135735.2,286046994.2,N
1580135755.0,286046994.4,N
1580135755.9,286046994.4,N
1580135775.7,286046993.9,N
1580135795.6,286046996.4,N
1580135815.4,286046994.2,N
1580135835.3,286046996.1,N
1580135855.1,286046995.4,N
1580135856.0,286046995.4,N
1580135875.8,286046993.4,Y
1580135895.7,286046999.2,P
1580135915.5,286046997.6,N
1580135935.4,286046999.0,N
1580135955.2,286046997.8,N
1580135975.0,286046995.3,Y
1580135975.9,286046995.3,P
1580135995.8,286046998.3,N
1580136015.6,286046998.9,N
1580136035.4,286047000.7,N
1580136055.3,286047000.2,N
1580136075.1,286047000.9,N
1580136095.9,286047001.2,N
1580136115.7,286047001.2,N
1580136135.5,286047000.9,N
1580136155.4,286046998.2,N
1580136175.2,286047001.1,N
1580136195.1,286047002.8,N
1580136196.0,286047002.8,N
1580136215.8,286047000.4,N
1580136235.6,286047001.2,N
1580136255.5,286047000.0,N
1580136275.3,286046998.5,N
1580136295.1,286046999.6,N
1580136315.9,286046998.4,N
1580136335.7,286046999.2,N
1580136355.6,286046998.7,N
1580136375.4,286047000.9,N
1580136395.2,286047001.1,N
1580136415.1,286047000.3,N
1580136416.0,286047000.3,N
1580136435.8,286046999.4,N
1580136455.7,286046998.7,N
1580136475.5,286047001.2,N
1580136495.3,286046999.1,N
1580136515.2,286046996.7,N
1580136535.0,286046997.2,N
1580136535.9,286046997.2,N
1580136555.8,286046997.8,N
1580136575.6,286046997.7,N
1580136595.4,286046995.5,N
1580136615.3,286046997.3,N
1580136635.1,286046994.9,N
1580136655.8,286046995.4,N
1580136675.7,286046999.6,N
1580136695.5,286046998.7,N
1580136715.4,286047002.6,N
1580136735.2,286047002.0,N
1580136755.0,286047002.2,N
1580136755.9,286047002.2,N
1580136775.8,286047000.9,N
1580136795.6,286046998.6,N
1580136815.5,286047001.1,N
1580136835.3,286046998.6,N
1580136855.1,286046998.4,N
1580136875.9,286046998.7,N
1580136895.7,286047000.6,N
1580136915.5,286047000.6,N
1580136935.4,286047000.0,N
1580136955.2,286047000.1,N
1580136975.1,286047000.5,N
1580136976.0,286047000.5,N
1580136995.8,286046999.4,N
1580137015.6,286046999.4,N
1580137035.5,286046999.3,N
1580137055.3,286046997.2,N
1580137075.1,286046999.6,N
1580137095.9,286046997.1,N
1580137115.7,286046997.7,N
1580137135.6,286046996.8,N
1580137155.4,286046994.9,N
1580137175.2,286046996.8,N
1580137195.1,286046999.6,N
1580137196.0,286046999.6,N
